Regional Weather Roundup
Issued by NWS

Home | Current Version | Previous Version | Text Only | Print | Product List | Glossary Off
Versions: 1 2 3 4 5 6 7 8 9 10 11 12 13 14 15 16 17 18 19 20 21 22 23 24 25 26 27 28 29 30 31 32 33 34 35 36 37 38 39 40 41 42 43 44 45 46 47 48 49 50

000
ASUS43 KMPX 261710
RWRMN
WEATHER ROUNDUP FOR MINNESOTA
NATIONAL WEATHER SERVICE TWIN CITIES/CHANHASSEN MN
1200 PM CDT THU MAR 26 2015


NOTE: "FAIR" INDICATES FEW OR NO CLOUDS BELOW 12,000 FEET WITH NO
SIGNIFICANT WEATHER AND/OR OBSTRUCTIONS TO VISIBILITY. N/A MEANS
CURRENT SKY AND/OR WEATHER CONDITIONS ARE NOT AVAILABLE.

MNZ060>063-068>070-261800-
   Twin Cities Metro

CITY           SKY/WX    TMP DP  RH WIND       PRES   REMARKS
TWIN CITIES    PTSUNNY   35  16  45 N13       30.12S WCI  26
ST PAUL        CLOUDY    34  17  50 NW15      30.13S WCI  24
CRYSTAL        CLOUDY    35  18  49 NW13G21   30.11S WCI  26
BLAINE         CLOUDY    36  18  48 N16       30.11R
LAKEVILLE      PTSUNNY   30  21  69 NW10      30.11S WCI  21
EDEN PRAIRIE   CLOUDY    32  18  56 N13       30.12S WCI  22
SOUTH ST PAUL  CLOUDY    34  17  50 N10G17    30.11F WCI  26
LAKE ELMO      CLOUDY    32  19  59 N12G17    30.11S WCI  23
$$
MNZ001>005-007-008-013>017-022>024-027-028-261800-
   Northwest Minnesota

CITY           SKY/WX    TMP DP  RH WIND       PRES   REMARKS
BEMIDJI        MOSUNNY   26  10  49 NW12G20   30.17S WCI  16
HALLOCK        PTSUNNY   27  18  69 N15G22    30.29S WCI  15
ROSEAU         SUNNY     23  10  58 N14       30.26S WCI  11
WARROAD        SUNNY     23   9  54 NE10      30.26R WCI  12
THIEF RVR FALL CLOUDY    25  12  58 N15G21    30.25S WCI  12
CROOKSTON      PTSUNNY   27  16  63 N13       30.28R WCI  16
FOSSTON        PTSUNNY   27  14  59 N20       30.21F WCI  13
DETROIT LAKES  MIX PCPN  27  18  69 N7G22     30.20S WCI  19
MOORHEAD       CLOUDY    28  19  69 N17       30.25S WCI  16
PARK RAPIDS      N/A     24  32 100 NW16      30.16R WCI  11
MAHNOMEN       PTSUNNY   25  12  56 N17G23    30.21S WCI  12
$$
MNZ006-009>011-018-025>026-261800-
   North Central Minnesota

CITY           SKY/WX    TMP DP  RH WIND       PRES   REMARKS
BAUDETTE       PTSUNNY   21  12  68 NW17      30.22R WCI   7
FLAG ISLAND    SUNNY     18   0  45 N13       30.25R WCI   4
INTL FALLS     MOSUNNY   22   8  55 NE9G16    30.18S WCI  12
WASKISH        SUNNY     27  12  54 NW9       30.20R WCI  17
BIG FORK       PTSUNNY   21   9  58 NW9       30.16S WCI  11
LONGVILLE      PTSUNNY   25  10  54 N9        30.16S WCI  15
GRAND RAPIDS   MOSUNNY   23   7  50 N16G24    30.14R WCI  10
CRANE LAKE     SUNNY     18   3  53 NW9       30.18S WCI   6
ORR            SUNNY     21   3  45 NW9       30.13S WCI  11
COOK           SUNNY     19   5  53 N6G16     30.14S WCI  11
WALKER         PTSUNNY   25   9  50 N10       30.16S WCI  14
$$
MNZ012-019>021-037-261800-
   Northeast Minnesota

CITY           SKY/WX    TMP DP  RH WIND       PRES   REMARKS
DULUTH         MOSUNNY   24  11  57 NW14G21   30.08R WCI  12
ELY            SUNNY     19   1  45 NW7G20    30.11S WCI  10
HIBBING        MOSUNNY   23   8  52 N17       30.13S WCI   9
EVELETH        MOSUNNY   21   5  49 N10G23    30.13S WCI  10
DULUTH HARBOR  CLOUDY    28  12  50 CALM      30.14R
TWO HARBORS    MOSUNNY   28  12  50 NW8       30.08S WCI  20
SILVER BAY     MOSUNNY   27  10  50 NW6       30.08R WCI  20
GRAND MARAIS     N/A     25   4  40 VRB5      30.11S WCI  19
G MARAIS ARPRT MOSUNNY   18   0  45 NW12G22   30.02R WCI   5
$$
MNZ029>031-032-039>041-046>048-054>057-064-261800-
   West Central Minnesota

CITY           SKY/WX    TMP DP  RH WIND       PRES   REMARKS
FERGUS FALLS   CLOUDY    27  16  63 N16G22    30.23F WCI  14
WHEATON        MOSUNNY   28  18  64 NW15      30.24S WCI  17
MORRIS         PTSUNNY   30  19  64 NW20      30.18F WCI  18
ALEXANDRIA     CLOUDY    27  17  66 N12G18    30.16S WCI  17
ELBOW LAKE     CLOUDY    28  17  64 NW14      30.19S WCI  17
WADENA         FLURRIES  25  18  74 N8        30.16S WCI  16
GLENWOOD       PTSUNNY   28  19  69 NW14      30.16F WCI  17
APPLETON       MOSUNNY   34  19  55 N20       30.21R WCI  22
BENSON         CLOUDY    30  19  64 N13       30.19S WCI  20
ORTONVILLE     PTSUNNY   30  19  64 N16G23    30.21S WCI  19
MADISON        CLOUDY    34  21  60 NW16      30.20S WCI  23
WILLMAR        FAIR      30  19  64 NW16G24   30.18S WCI  19
$$
MNZ033>034-036-042>043-049>051-058-059-261800-
   Central Minnesota

CITY           SKY/WX    TMP DP  RH WIND       PRES   REMARKS
ST CLOUD       CLOUDY    30  18  60 NW10      30.13S WCI  21
SAUK CENTRE    CLOUDY    28  17  65 N12       30.16S WCI  17
PAYNESVILLE    CLOUDY    27  19  71 W15       30.16S WCI  15
AITKIN         PTSUNNY   30  12  47 N15       30.13S WCI  19
PINE RIVER     PTSUNNY   27  12  54 N14       30.19R WCI  15
BRAINERD       CLOUDY    26  12  55 N14G24    30.16R WCI  14
STAPLES        CLOUDY    25  12  58 N9        30.16S WCI  15
LONG PRAIRIE   CLOUDY    28  18  64 NW14      30.16S WCI  17
LITTLE FALLS   CLOUDY    30  16  55 N8        30.15R WCI  23
LITCHFIELD     MOSUNNY   30  21  69 N15G22    30.15F WCI  19
BUFFALO        CLOUDY    32  18  55 NW8       30.15R WCI  25
MAPLE LAKE     CLOUDY    33  20  60 NW13G18   30.15R WCI  24
$$
MNZ037-044-045-052-053-261800-
   East Central Minnesota

CITY           SKY/WX    TMP DP  RH WIND       PRES   REMARKS
PRINCETON      CLOUDY    34  18  51 N14       30.13S WCI  24
MORA           CLOUDY    30  14  51 N7G16     30.14S WCI  23
CAMBRIDGE      CLOUDY    34  18  51 NW14G22   30.10S WCI  24
RUSH CITY      CLOUDY    30  18  60 NW9       30.12R WCI  22
MOOSE LAKE     MOSUNNY   30  10  43 N13G18    30.11R WCI  20
HINCKLEY       CLOUDY    30  19  64 N12       30.12R WCI  21
CLOQUET        MOSUNNY   27  10  50 NW14G29   30.10R WCI  15
MCGREGOR       CLOUDY    27  12  54 N15G21    30.14R WCI  15
$$
MNZ071>073-080-081-089-090-097-098-261800-
   Southwest Minnesota

CITY           SKY/WX    TMP DP  RH WIND       PRES   REMARKS
MONTEVIDEO     CLOUDY    34  21  60 N15G21    30.20S WCI  24
GRANITE FALLS  MOSUNNY   34  21  59 NW14      30.20S WCI  24
CANBY          PTSUNNY   33  23  68 NW14      30.21S WCI  23
MARSHALL       PTSUNNY   32  19  59 N17       30.19S WCI  21
REDWOOD FALLS  SUNNY     33  20  58 N13       30.17F WCI  24
OLIVIA         SUNNY     32  23  69 NW10      30.16F WCI  24
PIPESTONE      CLOUDY    34  23  64 N6        30.16S WCI  29
WINDOM         PTSUNNY   34  21  60 NW15      30.16S WCI  24
WORTHINGTON    CLOUDY    34  19  55 N16       30.16F WCI  23
JACKSON        PTSUNNY   36  23  60 NW15G24   30.15F
TRACY          CLOUDY    32  24  71 N13       30.18S WCI  23
SLAYTON        CLOUDY    31  22  68 N9G17     30.17S WCI  23
$$
MNZ065>067-074>077-082>085-091>093-261800-
   South Central Minnesota

CITY           SKY/WX    TMP DP  RH WIND       PRES   REMARKS
MANKATO        SUNNY     30  18  59 NW15      30.15S WCI  19
NEW ULM        SUNNY     30  19  64 NW14G20   30.16R WCI  20
ST JAMES       SUNNY     36  25  64 NW18      30.17S
FAIRMONT       MOSUNNY   36  19  51 NW17      30.14S
GLENCOE        MOSUNNY   32  22  67 NW12G17   30.14F WCI  23
FARIBAULT      CLOUDY    30  19  64 NW13G20   30.13S WCI  20
OWATONNA       CLOUDY    30  19  64 NW16      30.12S WCI  19
WASECA         PTSUNNY   32  23  69 NW14      30.14S WCI  22
ALBERT LEA     MOSUNNY   30  21  69 NW12G17   30.12S WCI  21
$$
MNZ078>079-086>088-094>096-261800-
   Southeast Minnesota

CITY           SKY/WX    TMP DP  RH WIND       PRES   REMARKS
ROCHESTER      CLOUDY    28  21  75 NW16      30.08S WCI  16
RED WING       CLOUDY    36  16  44 N9        30.09F
STANTON        CLOUDY    32  20  62 NW13      30.11R WCI  22
DODGE CENTER   CLOUDY    28  21  74 NW14      30.09S WCI  17
WINONA           N/A    N/A N/A N/A NW9       30.09R
AUSTIN         CLOUDY    28  19  69 NW14G22   30.10S WCI  17
PRESTON        CLOUDY    28  20  71 NW14G23   30.08S WCI  17
$$
ABBREVIATIONS USED IN REMARKS
   TC - TEMPERATURES IN CELSIUS
  WCI - WIND CHILL INDEX
   HX - HEAT INDEX
  VSB - VISIBILITY
$$



USA.gov is the U.S. government's official web portal to all federal, state and local government web resources and services.